Погода Туапсе

Хотите узнать прогноз погоды Туапсе? Тогда Вам сюда: Погода Туапсе

Поиск расширенной информации на нашем сайте:

Полезная информация:

Новости сайта



02.01.2020
Опубликован Долгосрочный прогноз погоды по городам России и ближнего зарубежья на январь 2020 года.
Карты: Прогноз на январь и февраль 2020 года, Сравнение прогнозируемой аномалии приземной температуры воздуха на январь 2020 года по разным моделям.




Погода Туапсе - сегодня

Время (UTC), дата Ветер
(°,м/с) 
Видим.   Явления Облачность Т
(°С)
Тd
(°С)
f(%) Тe
(°С)
Pmin
(гПа)
dP
(гПа)
Po
(мм)
O2
(г/м3)
Тmin Tmax R s Состояние
почвы
12 03.03.21 010 (С) 20000 м  {ливн. осадки}  9/8 1000 м кучево-дожд., средняя 
[Cb cap|Ac trans]
+7.7 -1.7 51 +9  1022.7  0.8  761  299           
15 03.03.21 360 (С) 20000 м    8/8 1000 м 
[Sc]
+6.2 -4.1 48 +7  1024.2  1.5  762  301    +9.8     
18 03.03.21 360 (С) 10 км    3/3 1000 м 
[Sc]
+3.6 -3.5 60 +4  1026.4  2.1  764  304           
21 03.03.21 030 (СВ) 10 км    3/3 1000 м 
[Sc]
+2.7 -3 66 +3  1027.3  0.8  765  305           
00 04.03.21 020 (С) 10 км    ясно 
+0.7 -3.1 76 1027.6  0.3  765  308           
03 04.03.21 040 (СВ) 10 км    9/0 средняя 
[Ac trans]
+0 -3.1 80 -1  1027.8  0.2  765  309  -0.1         
06 04.03.21 060 (СВ) 20000 м    9/8 1000 м средняя, верхняя 
[Cu Sc|Ac trans|Ci sp]
+4.1 -1.7 66 +5  1027.9  0.2  765  304           
09 04.03.21 160 (Ю) 20000 м    10/8 1000 м средняя, верхняя 
[Cu Sc|Ac trans|Ci sp]
+6.7 -1.6 55 +5  1027.1  -0.8  765  301           
12 04.03.21 210 (ЮЗ) 20000 м    10/8 1000 м средняя, верхняя 
[Cu Sc|Ac trans|Ci sp]
+6.9 -1 57 +6  1025.5  -1.5  763  300           
15 04.03.21 200 (Ю) 20000 м    3/3 1000 м 
[Cu Sc]
+6.5 -1.5 57 +6  1023.9  -1.6  762  300    +7.5       
18 04.03.21 200 (Ю) 10 км    3/3 1000 м 
[Cu Sc]
+5.5 -1.1 62 +6  1023.3  -0.7  762  301           
21 04.03.21 120 (ЮВ) 10 км    3/3 1000 м 
[Cu hum]
+5.6 -2.2 57 +5  1021.9  -1.3  761  301           
00 05.03.21 120 (ЮВ) 10 км    8/8 1000 м 
[Cu hum]
+5.7 -0.5 64 +5  1020.7  -1.2  760  300           
03 05.03.21 090 (В) 10 км    4/4 1000 м 
[Cu hum]
+4.7 -0.7 68 +6  1020.4  -0.4  760  301  +4.6         
06 05.03.21 150 (ЮВ) 20000 м    9/9 1000 м 
[Cu Sc]
+7 -0.8 58 +7  1020.4  0.1  760  299  +4.4         
09 05.03.21 200 (Ю) 20000 м    10/8 1000 м верхняя 
[Cu Sc|Ci]
+10 +0.1 50 +10  1020.3  760  295           
12 05.03.21 190 (Ю) 20000 м    10/6 1000 м верхняя 
[Cu Sc|Ci]
+10.3 +2.4 58 +11  1019.8  -0.5  759  294           
15 05.03.21 150 (ЮВ) 5-10  20000 м    3/0 верхняя 
[Ci fib]
+8.5 +1.4 61 +7  1019.8  759  296    +11.9       
18 05.03.21 150 (ЮВ) 5-12{12}  10 км    ясно 
+8.6 +2.1 64 +7  1020  0.2  759  296           
21 05.03.21 150 (ЮВ) 5-12{12}  10 км    ясно 
+8.6 +2.4 65 +7  1019.7  -0.3  759  296           
00 06.03.21 140 (ЮВ) 6-12{12}  10 км    ясно 
+8.5 +2.2 65 +7  1018.4  -1.3  758  296           
03 06.03.21 140 (ЮВ) 6-13  10 км    ясно 
+9.7 -2.2 43 +8  1017.8  -0.6  758  295  +8         
06 06.03.21 170 (Ю) 5-12{12}  20000 м    10/0 верхняя 
[Ci]
+11 -2.1 40 +10  1017.4  -0.4  757  294           
09 06.03.21 150 (ЮВ) 5-10{12}  20000 м    10/8 1000 м верхняя 
[Cu Sc|Ci sp]
+10.7 +3.6 61 +10  1017.7  0.3  758  293           
12 06.03.21 140 (ЮВ) 6-11{11}  20000 м    10/3 1000 м верхняя 
[Sc|Ci sp]
+11 +3.2 59 +10  1016.6  -1.1  757  293           
Время (UTC), дата Ветер
(°,м/с) 
Видим.   Явления Облачность Т
(°С)
Тd
(°С)
f(%) Тe
(°С)
Pmin
(гПа)
dP
(гПа)
Po
(мм)
O2
(г/м3)
Тmin Tmax R s Состояние
почвы

Для получения пояснительной информации подведите курсор к названию столбца.

ПОГОДА Туапсе - архив

Всё, что Вы хотите узнать о погоде Туапсе - удобно и подробно!

Выберите нужную дату (начиная с 1 января 2019* года) и нажмите кнопку "Найти".
Будут отображены архивные сводки погоды по пункту Туапсе, начиная с указанной даты.


Отображать данные в формате CSV (для использования в таблицах Excel)


Внимание! Наш архив погоды предназначен исключительно для личного некоммерческого использования в познавательных целях. Если Вам необходимы официальные справки о состоянии погоды (для производственных, юридических, коммерческих и т.п. целей), обращайтесь в органы Росгидромета.

*Примечание: данная дата относится к архиву по метеостанциям СССР (Россия, СНГ, Балтия).
Архив по метеостанциям Зарубежной Европы и Азии (кроме Китая) хранится 10 дней, по другим регионам земного шара (Китай, Африка, Америка, Австралия, Океания) - 1 день.

Туапсе - район местоположения метеостанции


Название, широта, долгота, высота метеостанции:
Туапсе 44.1°ш. 39.1°д. 61 м над ур. моря [Российская Федерация]

Дополнительная информация

В oтличие oт бoльшинства пoгoдных сайтoв мы публикуем пoдрoбную метеoинфoрмацию в детальнoм прoфессиoнальнoм фoрмате.

Характеристики температуры и влажнoсти вoздуха измеряются на высoте 2 м в тени вдали oт зданий и деревьев.
Скoрoсть ветра измеряется на высoте 10 м (на урoвне рoста челoвека скoрoсть ветра ниже в 1.5-2 раза). Если метеoстанция нахoдится в гoрoде или в лесу, тo скoрoсть ветра занижена на 2-4 м/с пo сравнению с oткрытым местoм. Скoрoсть ветра над акватoриями крупных рек и oзёр, а также на вершинах хoлмoв на 2-5 м/с выше, чем в oбычных услoвиях.
Атмoсфернoе давление в разных тoчках местнoсти мoжет значительнo oтличаться oт давления на метеoстанции, в зависимoсти oт услoвий рельефа (при пoдъёме на 10 м давление пoнижается примернo на 1 мм рт.ст.).